Change the Weather History Date:

Sunday, May 26, 2013

  Actual Average Record
Temperature  
Mean Temperature 66 °F 73 °F  
Max Temperature 76 °F 85 °F 98 °F (1926)
Min Temperature 55 °F 62 °F 44 °F (1988)
Degree Days  
Heating Degree Days 0 0  
Month to date heating degree days 36 23  
Since 1 July heating degree days 2762 2730  
Cooling Degree Days 1 9  
Month to date cooling degree days 136 153  
Year to date cooling degree days 207 236  
Growing Degree Days 15 (Base 50)    
Moisture  
Dew Point 43 °F    
Average Humidity 51    
Maximum Humidity 72    
Minimum Humidity 29    
Precipitation  
Precipitation 0.00 in 0.13 in 1.95 in (2003)
Month to date precipitation 1.98 2.52  
Year to date precipitation 13.34 14.95  
Sea Level Pressure  
Sea Level Pressure 30.20 in    
Wind  
Wind Speed 5 mph (North)    
Max Wind Speed 13 mph    
Max Gust Speed 18 mph    
Visibility 10 miles    
Events      
T = Trace of Precipitation, MM = Missing Value Source: NWS Daily Summary

Daily Weather History Graph

Daily Weather History Graph

Search for Another Location

Airport or City:

Trip Planner

Search our weather history database for the weather conditions in past years. The results will help you decide how hot, cold, wet, or windy it might be!

Date:

Astronomy

May. 26, 2013 Rise Set
Actual Time 6:05 AM EDT 8:20 PM EDT
Civil Twilight 5:36 AM EDT 8:49 PM EDT
Nautical Twilight 5:00 AM EDT 9:24 PM EDT
Astronomical Twilight 4:22 AM EDT 10:03 PM EDT
Moon 10:07 PM EDT (5/26) 7:31 AM EDT (5/26)
Length of Visible Light 15h 13m
Length of Day
14h 15m
Waning Gibbous, 97% of the Moon is Illuminated
May 26
Waning Gibbous
May 31
Last Quarter
Jun 8
New
Jun 16
First Quarter
Jun 23
Full

Hourly Weather History & Observations

Time (EDT) Temp. Dew Point Humidity Pressure Visibility Wind Dir Wind Speed Gust Speed Precip Events Conditions
12:53 AM 63.0 °F 46.9 °F 56% 30.16 in 10.0 mi WNW 5.8 mph - N/A   Clear
1:53 AM 57.9 °F 46.0 °F 65% 30.17 in 10.0 mi North 5.8 mph - N/A   Clear
2:53 AM 55.0 °F 46.9 °F 74% 30.17 in 10.0 mi NNE 5.8 mph - N/A   Clear
3:53 AM 57.9 °F 43.0 °F 58% 30.16 in 10.0 mi North 10.4 mph - N/A   Clear
4:53 AM 57.9 °F 39.0 °F 49% 30.17 in 10.0 mi North 10.4 mph - N/A   Clear
5:53 AM 57.9 °F 39.0 °F 49% 30.19 in 10.0 mi North 10.4 mph - N/A   Overcast
6:53 AM 57.9 °F 39.9 °F 51% 30.21 in 10.0 mi North 6.9 mph - N/A   Mostly Cloudy
7:53 AM 60.1 °F 39.9 °F 47% 30.23 in 10.0 mi North 9.2 mph - N/A   Mostly Cloudy
8:53 AM 60.1 °F 39.9 °F 47% 30.26 in 10.0 mi North 8.1 mph - N/A   Overcast
9:53 AM 62.1 °F 41.0 °F 46% 30.26 in 10.0 mi NE 4.6 mph - N/A   Overcast
10:53 AM 64.0 °F 42.1 °F 45% 30.26 in 10.0 mi NNE 8.1 mph - N/A   Overcast
11:53 AM 68.0 °F 41.0 °F 37% 30.25 in 10.0 mi Variable 6.9 mph - N/A   Mostly Cloudy
12:53 PM 69.1 °F 43.0 °F 39% 30.23 in 10.0 mi Variable 4.6 mph - N/A   Overcast
1:53 PM 68.0 °F 42.1 °F 39% 30.22 in 10.0 mi Variable 3.5 mph - N/A   Overcast
2:53 PM 70.0 °F 39.9 °F 33% 30.20 in 10.0 mi Calm Calm - N/A   Overcast
3:53 PM 73.0 °F 39.9 °F 30% 30.18 in 10.0 mi Calm Calm - N/A   Partly Cloudy
4:53 PM 75.0 °F 42.1 °F 31% 30.16 in 10.0 mi West 6.9 mph - N/A   Clear
5:53 PM 75.9 °F 42.1 °F 30% 30.17 in 10.0 mi Variable 6.9 mph - N/A   Clear
6:53 PM 75.0 °F 41.0 °F 29% 30.17 in 10.0 mi NW 6.9 mph - N/A   Clear
7:53 PM 72.0 °F 45.0 °F 38% 30.18 in 10.0 mi North 3.5 mph - N/A   Clear
8:53 PM 66.9 °F 46.0 °F 47% 30.19 in 10.0 mi NNE 3.5 mph - N/A   Clear
9:53 PM 64.0 °F 50.0 °F 60% 30.20 in 10.0 mi Calm Calm - N/A   Clear
10:53 PM 62.1 °F 48.9 °F 62% 30.22 in 10.0 mi Calm Calm - N/A   Clear
11:53 PM 59.0 °F 50.0 °F 72% 30.21 in 10.0 mi South 3.5 mph - N/A   Clear